Wind_Speed
26 25 23 23 22 21 21 20 18 18 15 13 14 13 11 10 9 9 8 8 8 9 10 11 12 12 12 12 12 13 13 13 14 12 13 14 13 13 13 12 12 11
27 25 24 24 23 22 22 20 19 18 16 15 15 13 11 12 11 10 10 9 9 10 11 11 12 12 12 12 12 13 14 14 14 13 13 13 12 13 13 12 11 10
27 25 24 24 24 24 23 20 19 19 16 16 16 13 12 14 12 11 11 10 10 11 11 11 11 11 12 12 13 14 14 14 14 13 13 13 12 12 12 11 10 9
27 27 25 24 25 25 24 22 20 19 18 17 17 13 12 13 13 12 12 11 12 12 12 12 12 12 13 13 14 14 14 14 13 13 13 12 11 11 10 10 9 9
27 28 26 24 25 26 25 23 21 20 19 18 15 13 13 13 14 14 13 13 13 12 12 12 12 13 13 13 14 14 14 14 12 12 12 11 10 10 9 9 9 9
27 28 27 25 26 26 26 24 21 20 20 19 16 14 15 14 14 15 14 14 13 13 13 13 13 13 13 13 13 13 13 13 12 11 11 11 10 9 8 8 8 8
27 29 28 27 27 27 26 23 21 20 20 20 17 15 15 16 16 16 15 14 14 14 13 13 13 13 12 13 13 12 12 12 12 11 11 11 10 9 8 8 8 8
29 30 29 28 27 26 26 24 22 21 20 19 17 15 16 17 17 17 16 15 15 14 14 13 13 13 13 12 12 12 12 12 11 11 11 11 10 9 9 9 9 9
29 30 29 28 27 25 25 24 23 22 20 19 18 17 17 17 18 18 17 16 15 15 14 14 13 13 12 12 12 13 12 12 11 11 11 10 10 10 9 9 9 8
30 30 28 27 26 26 26 25 24 23 21 19 18 19 19 18 18 18 17 17 16 15 15 14 14 13 12 12 12 12 12 12 11 11 10 10 10 10 9 8 8 8
30 30 29 27 27 28 28 27 25 23 21 20 20 20 19 19 19 18 18 17 16 16 15 14 14 13 13 13 13 12 12 12 12 11 10 10 10 9 9 8 8 7
30 30 30 27 28 30 29 28 26 24 22 21 21 20 20 20 20 19 18 18 17 16 15 14 14 13 13 13 13 12 12 12 12 11 10 10 10 9 8 8 8 7
29 30 30 29 30 31 29 28 26 24 22 21 21 21 21 21 20 19 19 18 17 17 16 15 15 14 13 13 12 12 12 12 12 11 10 10 10 9 8 8 7 6
30 29 30 31 32 31 29 28 26 24 22 21 22 21 21 21 21 20 20 19 18 18 17 16 16 15 14 13 13 13 12 12 11 11 11 10 10 9 8 8 7 6
30 28 30 32 32 31 30 28 26 24 22 22 22 22 22 21 21 21 21 20 20 20 19 19 18 18 17 16 16 16 15 13 12 12 11 11 10 9 8 8 7 7
29 29 30 32 33 32 30 28 26 24 23 22 22 22 22 22 21 21 21 22 22 23 22 22 21 20 20 19 17 16 16 14 13 12 11 11 10 10 9 8 8 8
28 29 32 34 33 32 31 29 26 25 24 23 23 22 22 23 24 23 22 24 26 25 23 23 21 20 20 19 18 17 16 15 14 13 12 12 11 10 10 9 9 9
27 30 34 35 33 31 31 29 26 25 25 24 24 24 24 25 25 23 22 26 28 25 22 22 21 19 20 20 19 19 18 15 14 13 12 12 11 10 10 10 9 8
27 30 33 33 32 32 31 28 26 25 25 25 24 24 25 25 25 22 21 25 26 22 20 20 20 19 20 20 20 20 19 16 14 13 13 12 11 11 11 12 12 9
28 29 31 32 32 32 31 28 26 25 24 24 25 25 26 25 23 21 22 23 22 20 19 19 18 19 21 21 21 20 19 16 12 12 13 12 11 11 10 11 11 10
29 29 30 31 33 33 31 28 27 27 25 24 25 25 25 24 22 22 23 22 19 18 19 18 18 19 20 22 23 21 21 17 10 9 13 12 10 10 10 9 9 8
30 30 30 32 33 32 31 29 28 27 25 25 25 24 24 24 22 22 22 21 19 18 19 18 18 20 20 21 24 24 23 19 10 7 10 12 10 9 9 9 9 9
31 31 30 31 32 31 30 29 28 27 25 26 26 24 23 23 22 21 21 20 20 19 18 17 19 21 20 20 23 26 26 21 12 6 8 10 9 9 9 10 10 10
31 31 31 31 31 30 30 29 28 27 27 27 27 25 23 22 22 21 20 20 20 20 17 17 19 21 19 18 22 26 27 22 12 7 7 9 10 10 10 11 11 12
30 30 31 32 31 31 32 31 29 28 28 26 26 25 23 22 22 21 20 20 20 19 16 16 20 21 19 18 21 25 27 22 13 9 9 10 11 11 11 11 13 14
29 30 31 32 31 31 32 31 29 29 28 26 24 23 22 21 21 20 20 19 19 18 16 15 18 20 20 20 20 23 26 23 15 11 11 11 12 12 12 12 13 14
Wind_Direction
173 170 170 170 168 169 169 166 167 167 160 161 170 173 176 177 172 170 167 163 155 141 139 138 132 127 122 121 121 117 115 112 105 105 106 104 99 95 92 87 85 83
173 171 170 168 166 167 166 166 169 167 164 169 172 171 177 175 169 171 169 164 157 145 141 139 132 130 126 124 124 119 115 110 103 101 101 100 99 95 91 88 86 84
173 171 169 167 166 166 165 166 169 167 168 171 167 164 171 169 167 172 169 163 158 148 142 139 134 132 128 125 123 117 113 111 108 106 102 99 97 95 93 91 88 90
174 171 168 167 168 167 164 165 168 169 166 163 160 162 167 167 167 169 166 163 158 149 144 140 136 133 128 125 122 118 116 114 111 109 107 103 101 101 99 99 96 94
175 172 168 166 167 167 165 165 168 169 165 160 159 167 170 165 167 168 166 162 157 151 148 142 138 134 129 128 126 122 119 115 112 111 110 107 106 106 103 103 100 91
173 172 170 166 166 166 165 165 168 169 170 169 166 169 173 169 169 171 167 164 159 154 150 144 140 136 131 131 126 121 120 118 117 116 113 111 110 110 111 110 103 94
169 170 169 165 165 166 164 164 167 166 167 171 167 165 171 172 174 174 169 165 162 157 152 146 143 139 135 132 126 124 126 123 123 122 119 120 120 119 120 116 107 97
167 167 168 165 164 165 164 165 167 165 162 164 165 166 170 173 174 173 170 167 162 157 154 149 145 142 138 135 132 132 130 128 130 130 128 129 130 129 126 119 113 103
166 166 167 167 167 166 164 165 167 166 163 162 166 167 169 173 173 170 168 166 162 158 153 150 149 146 142 141 140 138 135 135 137 137 137 139 138 136 131 122 115 107
165 165 164 165 168 167 163 163 164 166 164 163 165 165 167 171 171 168 167 165 162 158 154 153 151 147 146 147 145 143 143 141 141 142 143 145 144 140 136 130 123 117
164 164 164 164 168 168 164 164 163 162 162 164 165 165 167 170 169 168 168 165 161 159 155 154 152 150 150 151 151 152 150 147 146 148 148 148 148 143 139 138 131 126
164 166 167 167 169 168 165 165 164 161 162 165 167 167 168 169 169 168 167 164 162 160 156 154 153 154 155 155 157 157 154 154 152 151 153 150 147 146 145 143 138 135
165 166 170 170 169 165 163 164 163 162 164 167 170 170 169 168 169 169 167 165 163 159 157 156 153 154 156 157 160 159 157 159 157 154 155 152 151 152 149 145 144 140
167 167 170 170 167 164 163 163 162 163 166 170 171 170 168 169 170 169 167 165 163 159 157 155 152 155 160 161 163 164 163 163 162 160 158 157 158 155 152 152 148 145
165 166 166 166 165 164 163 163 162 165 169 170 171 170 169 171 171 169 167 165 161 160 159 159 160 165 170 172 172 170 168 168 170 170 167 164 163 159 158 158 153 161
162 163 164 163 164 165 164 163 163 167 170 170 170 169 170 173 172 168 168 166 162 162 163 164 169 173 174 175 176 172 169 171 175 176 174 172 170 169 170 169 172 185
160 162 165 164 164 165 166 165 165 169 170 169 168 170 173 174 170 168 170 170 168 167 169 171 174 178 177 174 176 176 172 173 177 179 177 178 179 178 179 181 186 196
160 163 166 166 165 167 167 166 169 170 169 170 169 171 173 171 168 170 174 174 171 170 174 177 177 179 179 176 179 180 175 174 177 179 180 183 184 184 189 191 189 193
159 162 166 167 168 168 166 168 172 171 169 170 170 170 170 169 170 173 172 170 171 172 177 180 182 183 184 184 184 182 177 173 175 182 186 185 186 193 197 193 188 188
161 162 165 167 170 169 168 171 173 171 169 170 171 172 173 173 174 173 168 166 171 177 180 182 188 190 190 192 191 184 178 175 175 183 188 186 191 198 195 182 180 189
166 165 165 167 170 170 171 172 170 168 169 170 171 174 176 176 177 177 174 172 176 182 182 185 192 194 192 195 197 189 183 183 176 171 182 191 195 193 186 178 181 193
168 166 166 168 170 170 171 171 168 166 167 168 167 168 171 174 177 179 179 180 182 183 184 189 196 195 194 198 200 193 188 188 178 159 180 193 193 187 184 187 195 203
168 167 166 167 170 172 172 171 169 169 170 170 167 165 167 169 172 175 178 182 184 184 188 195 196 194 198 202 200 195 192 189 183 174 187 190 187 191 194 194 201 205
169 168 168 169 172 176 175 173 173 174 174 172 169 169 172 173 174 175 178 183 186 187 193 197 192 190 195 200 198 196 193 189 187 192 197 195 195 199 200 201 205 203
170 171 173 172 173 174 173 172 173 174 173 171 171 174 177 178 177 176 179 185 188 189 193 195 190 188 192 197 197 195 192 188 188 199 202 202 204 201 200 207 214 211
171 173 174 172 171 171 171 171 172 172 170 168 171 174 174 176 178 177 179 183 185 189 191 190 187 187 190 194 194 194 193 188 186 202 209 207 206 202 200 208 215 218
Height
795 797 799 802 804 806 808 810 812 814 816 818 820 822 824 825 826 827 828 829 830 830 831 832 832 833 833 834 834 834 835 836 837 838 838 839 841 842 843 843 844 845
794 796 798 800 802 805 807 809 812 813 815 818 820 822 823 824 826 827 828 829 830 831 832 832 833 833 834 834 834 835 836 837 838 839 839 840 842 843 844 844 846 847
792 794 797 799 801 803 806 808 811 813 815 818 819 821 823 823 825 827 828 829 831 831 832 833 833 834 834 835 835 836 836 837 838 839 840 842 843 844 845 846 847 848
790 792 795 798 800 802 805 807 810 813 815 817 818 821 822 823 825 827 828 830 831 832 833 833 834 834 835 835 835 836 837 838 839 840 841 843 844 845 846 847 848 849
788 791 793 796 799 801 804 806 810 812 814 816 818 820 821 823 825 827 828 830 831 832 833 833 834 834 835 835 836 837 838 839 840 841 842 844 845 846 847 848 849 849
786 789 792 795 797 800 803 805 809 811 812 814 816 819 820 822 825 827 828 830 831 832 833 833 834 835 835 836 837 838 839 840 841 842 844 845 846 847 848 849 849 849
785 788 791 794 796 799 802 804 807 809 811 813 816 818 820 822 825 827 828 830 831 832 833 834 834 835 836 837 838 839 840 841 842 843 844 845 847 848 849 849 849 849
783 786 789 792 795 798 800 802 806 808 810 813 816 818 820 822 825 826 828 830 831 832 832 834 835 835 837 837 838 839 840 842 843 844 845 846 847 848 849 849 849 849
782 784 787 790 793 796 798 801 805 808 810 812 815 818 820 822 824 826 828 829 830 831 832 833 835 836 837 838 839 840 841 842 843 844 846 847 848 848 848 849 849 850
780 783 786 789 792 795 797 800 804 807 810 812 815 817 819 822 823 825 827 828 829 831 832 833 834 836 837 838 839 841 841 842 843 845 846 847 848 848 849 849 849 850
779 782 785 788 791 794 797 800 804 806 809 812 815 817 819 821 822 824 826 827 829 830 831 833 834 835 837 838 839 840 841 842 843 845 847 848 848 849 849 849 850 850
778 781 784 787 791 793 796 799 803 805 809 811 814 815 817 819 821 823 825 826 828 829 830 832 834 835 837 838 839 840 841 842 843 845 846 847 848 849 849 849 850 851
777 780 784 787 789 792 795 799 802 805 808 810 812 814 816 818 820 822 823 825 826 828 829 831 833 835 837 838 840 841 842 843 844 845 846 847 848 849 849 850 850 851
776 780 783 785 788 791 795 798 800 804 807 809 811 813 815 817 819 820 822 823 825 826 828 830 832 834 836 838 839 841 842 843 844 845 846 847 848 849 849 850 850 851
775 779 781 784 787 790 793 796 799 803 806 808 810 812 814 816 817 819 820 822 823 825 826 828 830 831 833 836 837 838 840 842 844 845 846 847 848 848 849 850 850 850
773 777 780 782 785 788 792 795 798 802 804 806 808 811 813 814 816 818 819 820 821 822 823 826 829 831 832 834 836 838 839 841 843 845 846 846 847 848 849 849 850 850
771 775 778 780 783 787 791 794 797 800 803 805 807 809 811 813 814 816 817 818 819 820 823 825 828 831 832 833 835 837 838 840 842 844 845 846 847 847 848 849 849 849
770 773 776 779 782 786 789 793 796 799 801 803 805 807 809 810 812 814 816 817 817 820 823 825 827 830 831 833 835 836 837 839 841 843 844 845 846 846 847 848 848 848
768 771 775 778 781 785 788 792 795 797 799 801 803 805 807 810 812 813 814 816 817 820 823 825 827 829 831 832 834 835 837 838 840 842 843 844 845 845 846 847 847 848
767 770 773 776 780 783 787 790 793 795 797 799 801 803 806 808 810 812 814 816 818 820 823 824 826 828 830 832 834 835 837 838 840 841 842 843 844 844 845 845 846 847
766 769 772 775 778 782 785 788 791 793 795 798 800 802 805 807 809 811 813 816 818 820 822 823 825 827 829 831 833 835 836 837 838 839 840 842 842 843 843 844 845 846
764 767 770 773 777 780 782 786 788 791 794 796 799 801 804 806 809 811 813 815 817 819 821 822 823 825 828 830 832 834 836 837 838 838 839 840 841 841 842 843 844 845
762 765 769 772 775 778 781 784 786 790 792 795 798 801 803 805 807 809 812 814 816 818 820 821 822 824 826 828 830 832 834 836 837 838 839 839 840 841 842 842 843 844
761 764 767 770 773 776 779 782 785 788 791 793 797 800 803 805 807 808 811 813 815 817 818 819 821 823 825 827 829 831 833 835 836 837 838 839 839 840 841 841 842 843
758 762 765 768 771 774 777 780 783 786 789 792 795 798 801 804 806 807 809 812 814 816 817 818 820 822 824 826 828 830 832 834 835 837 837 838 838 839 840 840 840 841
757 761 763 766 770 773 775 778 781 784 787 791 794 797 800 803 805 806 808 811 814 816 816 817 819 821 823 825 827 829 831 832 834 835 836 837 837 838 838 839 839 839